Aurora, NE

12:05 PM CST on December 11, 2017 (GMT -0600)
Aurora Municipal

Weather History for KAUH - February, 2014

Change the Weather History Date:

Wednesday, February 19, 2014

  Actual Average Record
Temperature  
Mean Temperature 38 °F -  
Max Temperature 55 °F 40 °F 70 °F (2017)
Min Temperature 22 °F 19 °F -11 °F (1993)
Degree Days  
Heating Degree Days 26    
Moisture  
Dew Point 21 °F    
Average Humidity 55    
Maximum Humidity 82    
Minimum Humidity 24    
Precipitation  
Precipitation 0.04 in - - ()
Sea Level Pressure  
Sea Level Pressure 29.78 in    
Wind  
Wind Speed 9 mph (SSW)    
Max Wind Speed 21 mph    
Max Gust Speed 26 mph    
Visibility 10 miles    
Events      
Averages and records for this station are not official NWS values.
T = Trace of Precipitation, MM = Missing Value Source: NWS Daily Summary

Daily Weather History Graph

Daily Weather History Graph

Search for Another Location

Airport or City:

Trip Planner

Search our weather history database for the weather conditions in past years. The results will help you decide how hot, cold, wet, or windy it might be!

Date:

Astronomy

Feb. 19, 2014 Rise Set
Actual Time 7:20 AM CST 6:11 PM CST
Civil Twilight 6:52 AM CST 6:39 PM CST
Nautical Twilight 6:20 AM CST 7:11 PM CST
Astronomical Twilight 5:49 AM CST 7:43 PM CST
Moon 11:08 PM CST (2/19) 9:25 AM CST (2/19)
Length of Visible Light 11h 46m
Length of Day
10h 50m
Waning Gibbous, 79% of the Moon is Illuminated
Feb 19
Waning Gibbous
Feb 22
Last Quarter
Mar 1
New
Mar 8
First Quarter
Mar 16
Full

Hourly Weather History & Observations

Time (CST) Temp. Windchill Dew Point Humidity Pressure Visibility Wind Dir Wind Speed Gust Speed Precip Events Conditions
12:15 AM 25.7 °F 18.0 °F 17.6 °F 71% 29.98 in 10.0 mi WSW 6.9 mph - N/A   Clear
12:35 AM 26.1 °F 18.4 °F 18.0 °F 71% 29.98 in 10.0 mi WSW 6.9 mph - N/A   Clear
12:55 AM 27.5 °F 22.2 °F 19.2 °F 71% 29.97 in 10.0 mi West 4.6 mph - N/A   Clear
1:15 AM 25.5 °F 18.7 °F 18.0 °F 73% 29.97 in 10.0 mi West 5.8 mph - N/A   Clear
1:35 AM 26.6 °F 19.1 °F 18.5 °F 71% 29.97 in 10.0 mi West 6.9 mph - N/A   Clear
1:55 AM 27.5 °F 21.1 °F 19.2 °F 71% 29.96 in 10.0 mi West 5.8 mph - N/A   Clear
2:15 AM 28.4 °F 22.2 °F 19.2 °F 69% 29.95 in 10.0 mi WSW 5.8 mph - N/A   Clear
2:35 AM 25.9 °F 18.2 °F 17.8 °F 71% 29.96 in 10.0 mi WSW 6.9 mph - N/A   Clear
2:55 AM 25.5 °F 18.7 °F 18.7 °F 75% 29.95 in 10.0 mi WSW 5.8 mph - N/A   Clear
3:15 AM 24.8 °F 17.9 °F 18.7 °F 78% 29.94 in 10.0 mi WSW 5.8 mph - N/A   Clear
3:35 AM 25.7 °F 20.1 °F 19.2 °F 76% 29.92 in 10.0 mi West 4.6 mph - N/A   Clear
3:55 AM 26.4 °F 20.9 °F 19.2 °F 74% 29.92 in 10.0 mi West 4.6 mph - N/A   Clear
4:15 AM 25.3 °F 18.5 °F 18.5 °F 75% 29.92 in 10.0 mi WSW 5.8 mph - N/A   Clear
4:35 AM 22.3 °F 13.0 °F 16.9 °F 80% 29.92 in 10.0 mi WSW 8.1 mph - N/A   Clear
4:55 AM 23.9 °F 14.2 °F 18.7 °F 80% 29.93 in 10.0 mi WSW 9.2 mph - N/A   Clear
5:15 AM 25.7 °F 16.4 °F 19.6 °F 78% 29.94 in 10.0 mi WSW 9.2 mph - N/A   Clear
5:35 AM 26.6 °F 18.2 °F 20.3 °F 77% 29.94 in 10.0 mi WSW 8.1 mph - N/A   Clear
5:55 AM 26.6 °F 19.1 °F 20.3 °F 77% 29.93 in 10.0 mi WSW 6.9 mph - N/A   Clear
6:15 AM 26.2 °F 18.6 °F 19.9 °F 77% 29.93 in 10.0 mi WSW 6.9 mph - N/A   Clear
6:35 AM 25.9 °F 19.2 °F 20.1 °F 79% 29.92 in 10.0 mi WSW 5.8 mph - N/A   Clear
6:55 AM 25.7 °F 19.0 °F 19.9 °F 79% 29.91 in 10.0 mi WSW 5.8 mph - N/A   Clear
7:15 AM 25.3 °F 18.5 °F 19.9 °F 80% 29.91 in 10.0 mi SW 5.8 mph - N/A   Clear
7:35 AM 24.4 °F 17.5 °F 19.6 °F 82% 29.91 in 10.0 mi SW 5.8 mph - N/A   Clear
7:55 AM 26.6 °F 18.2 °F 21.0 °F 79% 29.90 in 10.0 mi SSW 8.1 mph - N/A   Clear
8:15 AM 28.9 °F 21.1 °F 22.1 °F 76% 29.91 in 10.0 mi SW 8.1 mph - N/A   Clear
8:35 AM 30.6 °F 24.7 °F 23.2 °F 74% 29.91 in 10.0 mi SW 5.8 mph - N/A   Clear
8:55 AM 32.9 °F 25.3 °F 23.9 °F 69% 29.90 in 10.0 mi SW 9.2 mph - N/A   Clear
9:15 AM 36.5 °F 29.7 °F 25.7 °F 65% 29.91 in 10.0 mi SW 9.2 mph - N/A   Clear
9:35 AM 38.5 °F 31.6 °F 25.7 °F 60% 29.90 in 10.0 mi SW 10.4 mph - N/A   Clear
9:55 AM 40.8 °F 33.3 °F 25.7 °F 55% 29.89 in 10.0 mi SSW 13.8 mph - N/A   Clear
10:15 AM 43.2 °F 36.6 °F 24.8 °F 48% 29.89 in 10.0 mi SSW 12.7 mph - N/A   Clear
10:35 AM 43.9 °F 36.8 °F 24.8 °F 47% 29.88 in 10.0 mi SSW 15.0 mph - N/A   Clear
10:55 AM 46.2 °F 39.8 °F 24.4 °F 42% 29.87 in 10.0 mi South 15.0 mph 18.4 mph N/A   Clear
11:15 AM 48.2 °F - 21.9 °F 36% 29.86 in 10.0 mi South 15.0 mph 20.7 mph N/A   Clear
11:35 AM 47.8 °F - 21.6 °F 35% 29.85 in 10.0 mi SSW 16.1 mph 24.2 mph N/A   Clear
11:55 AM 49.5 °F - 21.2 °F 33% 29.84 in 10.0 mi South 15.0 mph - N/A   Clear
12:15 PM 50.7 °F - 18.5 °F 28% 29.82 in 10.0 mi South 16.1 mph 25.3 mph N/A   Clear
12:35 PM 52.5 °F - 19.4 °F 27% 29.80 in 10.0 mi South 18.4 mph 24.2 mph N/A   Clear
12:55 PM 52.2 °F - 19.4 °F 28% 29.79 in 10.0 mi South 20.7 mph 26.5 mph N/A   Clear
1:15 PM 53.6 °F - 19.8 °F 27% 29.78 in 10.0 mi South 17.3 mph 25.3 mph N/A   Clear
1:35 PM 54.0 °F - 19.2 °F 26% 29.76 in 10.0 mi SSW 17.3 mph 23.0 mph N/A   Clear
1:55 PM 55.0 °F - 19.0 °F 24% 29.74 in 10.0 mi South 18.4 mph 24.2 mph 0.04 in   Clear
2:15 PM 54.1 °F - 19.9 °F 26% 29.72 in 10.0 mi South 16.1 mph - N/A   Clear
2:35 PM 54.3 °F - 20.8 °F 27% 29.71 in 10.0 mi South 16.1 mph - N/A   Clear
2:55 PM 54.1 °F - 21.2 °F 28% 29.70 in 10.0 mi South 15.0 mph 25.3 mph N/A   Clear
2:56 PM 53.6 °F - 21.2 °F 28% 29.70 in 10.0 mi South 11.5 mph 25.3 mph N/A   Clear
3:15 PM 54.5 °F - 21.4 °F 28% 29.69 in 10.0 mi South 18.4 mph 24.2 mph N/A   Clear
3:35 PM 55.0 °F - 20.7 °F 26% 29.68 in 10.0 mi South 16.1 mph 21.9 mph N/A   Clear
3:55 PM 54.9 °F - 20.1 °F 26% 29.66 in 10.0 mi South 13.8 mph - N/A   Clear
4:15 PM 55.2 °F - 20.5 °F 26% 29.65 in 10.0 mi South 12.7 mph - N/A   Clear
4:35 PM 55.6 °F - 19.4 °F 24% 29.64 in 10.0 mi South 15.0 mph - N/A   Clear
4:55 PM 54.7 °F - 19.9 °F 26% 29.63 in 10.0 mi South 17.3 mph 20.7 mph N/A   Clear
5:15 PM 54.3 °F - 21.0 °F 27% 29.63 in 10.0 mi South 13.8 mph - N/A   Clear
5:35 PM 52.5 °F - 21.2 °F 29% 29.62 in 10.0 mi South 10.4 mph - N/A   Clear
5:55 PM 51.3 °F - 20.3 °F 30% 29.61 in 10.0 mi SSE 9.2 mph - N/A   Clear
6:15 PM 48.0 °F - 22.5 °F 37% 29.60 in 10.0 mi SSE 10.4 mph - N/A   Clear
6:35 PM 47.5 °F - 23.9 °F 40% 29.60 in 10.0 mi SSE 12.7 mph - N/A   Clear
6:55 PM 46.4 °F 41.1 °F 23.9 °F 41% 29.61 in 10.0 mi SSE 11.5 mph - N/A   Clear
7:15 PM 45.3 °F 40.1 °F 23.9 °F 43% 29.62 in 10.0 mi SSE 10.4 mph - N/A   Clear
7:35 PM 43.2 °F 38.4 °F 23.9 °F 47% 29.62 in 10.0 mi SSE 8.1 mph - N/A   Clear
7:55 PM 42.3 °F 36.3 °F 24.3 °F 49% 29.61 in 10.0 mi SSE 10.4 mph - N/A   Clear
8:15 PM 41.7 °F 35.6 °F 24.6 °F 51% 29.60 in 10.0 mi SSE 10.4 mph - N/A   Clear
8:35 PM 41.2 °F 36.0 °F 24.8 °F 52% 29.60 in 10.0 mi SSE 8.1 mph - N/A   Clear
8:55 PM 40.6 °F 34.8 °F 24.8 °F 53% 29.60 in 10.0 mi SSE 9.2 mph - N/A   Clear
9:15 PM 39.2 °F 33.0 °F 24.6 °F 56% 29.59 in 10.0 mi SSE 9.2 mph - N/A   Clear
9:35 PM 37.9 °F 32.7 °F 24.4 °F 58% 29.59 in 10.0 mi SSE 6.9 mph - N/A   Clear
9:55 PM 36.5 °F 30.3 °F 23.9 °F 60% 29.58 in 10.0 mi SSE 8.1 mph - N/A   Clear
10:35 PM 34.0 °F 28.0 °F 23.5 °F 66% 29.57 in 10.0 mi SE 6.9 mph - N/A   Clear
10:41 PM 33.8 °F 27.7 °F 23.0 °F 65% 29.57 in 10.0 mi SE 6.9 mph - N/A   Clear
10:55 PM 33.4 °F 27.3 °F 23.7 °F 68% 29.57 in 10.0 mi SE 6.9 mph - N/A   Clear
11:15 PM 31.8 °F 25.4 °F 22.8 °F 69% 29.55 in 10.0 mi SE 6.9 mph - N/A   Clear
11:35 PM 31.1 °F 24.5 °F 23.2 °F 72% 29.54 in 10.0 mi SE 6.9 mph - N/A   Clear
11:55 PM 32.0 °F 24.8 °F 24.3 °F 73% 29.53 in 10.0 mi SE 8.1 mph - N/A   Clear
11:57 PM 32.0 °F 24.8 °F 24.8 °F 75% 29.53 in 10.0 mi SE 8.1 mph - N/A   Clear